TimeMDT,TemperatureF,Dew PointF,Humidity,Sea Level PressureIn,VisibilityMPH,Wind Direction,Wind SpeedMPH,Gust SpeedMPH,PrecipitationIn,Events,Conditions,WindDirDegrees,DateUTC
12:15 AM,65.5,62.2,89,29.95,10.0,Calm,Calm,-,N/A,,Clear,0,2013-08-06 06:15:00
12:35 AM,66.2,62.6,88,29.96,10.0,East,6.9,-,N/A,,Clear,90,2013-08-06 06:35:00
12:55 AM,65.8,62.6,89,29.95,10.0,Calm,Calm,-,N/A,,Clear,0,2013-08-06 06:55:00
1:15 AM,63.7,61.3,92,29.94,10.0,Calm,Calm,-,N/A,,Clear,0,2013-08-06 07:15:00
1:35 AM,62.8,61.0,94,29.93,7.0,West,3.5,-,N/A,,Clear,280,2013-08-06 07:35:00
1:55 AM,63.5,61.7,94,29.91,10.0,West,5.8,-,N/A,,Clear,260,2013-08-06 07:55:00
2:15 AM,61.9,59.9,93,29.91,7.0,WSW,5.8,-,N/A,,Clear,250,2013-08-06 08:15:00
2:35 AM,61.3,59.7,94,29.91,7.0,West,4.6,-,N/A,,Clear,280,2013-08-06 08:35:00
2:55 AM,61.2,59.5,94,29.93,7.0,SE,9.2,-,N/A,,Clear,130,2013-08-06 08:55:00
3:15 AM,63.7,59.9,87,29.91,10.0,Calm,Calm,-,N/A,,Clear,0,2013-08-06 09:15:00
3:35 AM,63.5,59.4,86,29.91,10.0,SSW,4.6,-,N/A,,Clear,200,2013-08-06 09:35:00
3:55 AM,62.6,59.0,88,29.92,10.0,South,3.5,-,N/A,,Clear,190,2013-08-06 09:55:00
4:15 AM,62.8,58.8,87,29.91,10.0,SSW,8.1,-,N/A,,Clear,200,2013-08-06 10:15:00
4:35 AM,63.1,59.0,86,29.91,10.0,SSE,3.5,-,N/A,,Clear,160,2013-08-06 10:35:00
4:55 AM,63.1,58.5,85,29.91,10.0,South,4.6,-,N/A,,Clear,190,2013-08-06 10:55:00
5:15 AM,62.1,58.6,89,29.91,10.0,NE,4.6,-,N/A,,Clear,50,2013-08-06 11:15:00
5:35 AM,61.5,58.3,89,29.92,10.0,NNE,4.6,-,N/A,,Clear,30,2013-08-06 11:35:00
5:55 AM,62.2,59.0,89,29.95,10.0,NE,8.1,-,N/A,,Clear,50,2013-08-06 11:55:00
6:15 AM,62.6,59.4,89,29.95,10.0,NE,5.8,-,N/A,,Clear,50,2013-08-06 12:15:00
6:35 AM,63.7,59.7,87,29.95,10.0,NE,8.1,-,N/A,,Clear,50,2013-08-06 12:35:00
6:55 AM,65.3,60.8,85,29.95,10.0,East,6.9,-,N/A,,Clear,100,2013-08-06 12:55:00
7:15 AM,65.7,61.2,85,29.95,10.0,ESE,4.6,-,N/A,,Clear,110,2013-08-06 13:15:00
7:35 AM,67.3,62.4,84,29.94,10.0,East,5.8,-,N/A,,Clear,100,2013-08-06 13:35:00
7:55 AM,67.8,63.3,85,29.95,10.0,East,10.4,-,N/A,,Scattered Clouds,100,2013-08-06 13:55:00
8:15 AM,65.8,63.3,92,29.95,5.0,ESE,3.5,-,N/A,,Mostly Cloudy,120,2013-08-06 14:15:00
8:35 AM,68.4,64.6,88,29.95,7.0,ENE,3.5,-,N/A,,Scattered Clouds,60,2013-08-06 14:35:00
8:55 AM,71.2,64.6,79,29.95,10.0,Calm,Calm,-,N/A,,Clear,0,2013-08-06 14:55:00
9:15 AM,72.5,65.1,78,29.95,10.0,Calm,Calm,-,N/A,,Clear,0,2013-08-06 15:15:00
9:35 AM,74.7,66.2,75,29.95,10.0,East,4.6,-,N/A,,Clear,90,2013-08-06 15:35:00
9:55 AM,75.4,66.4,73,29.95,10.0,ENE,3.5,-,N/A,,Scattered Clouds,70,2013-08-06 15:55:00
10:15 AM,77.0,66.6,70,29.94,10.0,East,4.6,-,N/A,,Scattered Clouds,90,2013-08-06 16:15:00
10:35 AM,77.4,66.6,69,29.94,10.0,East,5.8,-,N/A,,Scattered Clouds,90,2013-08-06 16:35:00
10:55 AM,77.9,67.1,69,29.95,10.0,East,10.4,-,N/A,,Mostly Cloudy,100,2013-08-06 16:55:00
11:15 AM,79.2,66.9,66,29.94,10.0,SE,6.9,-,N/A,,Scattered Clouds,130,2013-08-06 17:15:00
11:35 AM,80.8,65.8,60,29.94,10.0,SE,3.5,-,N/A,,Clear,140,2013-08-06 17:35:00
11:55 AM,81.5,65.5,58,29.94,10.0,ESE,4.6,-,N/A,,Clear,120,2013-08-06 17:55:00
12:15 PM,82.4,64.2,54,29.94,10.0,East,3.5,-,N/A,,Clear,100,2013-08-06 18:15:00
12:35 PM,83.3,64.8,53,29.94,10.0,Calm,Calm,-,N/A,,Scattered Clouds,0,2013-08-06 18:35:00
12:55 PM,84.2,65.7,54,29.94,10.0,West,3.5,-,N/A,,Scattered Clouds,260,2013-08-06 18:55:00
1:15 PM,84.9,65.1,51,29.94,10.0,WNW,5.8,-,N/A,,Clear,290,2013-08-06 19:15:00
1:35 PM,85.6,63.5,47,29.94,10.0,WNW,8.1,-,N/A,,Clear,300,2013-08-06 19:35:00
1:55 PM,86.0,63.0,46,29.93,10.0,West,3.5,-,N/A,,Clear,280,2013-08-06 19:55:00
2:15 PM,85.8,62.6,46,29.93,10.0,SSW,3.5,-,N/A,,Clear,200,2013-08-06 20:15:00
2:35 PM,86.0,63.1,46,29.93,10.0,Calm,Calm,-,N/A,,Clear,0,2013-08-06 20:35:00
2:55 PM,86.7,63.5,46,29.93,10.0,NNE,6.9,-,N/A,,Clear,20,2013-08-06 20:55:00
3:15 PM,87.1,62.1,43,29.92,10.0,NNE,6.9,-,N/A,,Clear,20,2013-08-06 21:15:00
3:35 PM,87.1,62.1,43,29.92,10.0,ENE,3.5,-,N/A,,Clear,60,2013-08-06 21:35:00
3:55 PM,87.3,61.9,42,29.92,10.0,ENE,5.8,-,N/A,,Clear,60,2013-08-06 21:55:00
4:15 PM,87.1,61.2,42,29.93,10.0,NNE,4.6,-,N/A,,Clear,30,2013-08-06 22:15:00
4:35 PM,87.6,61.7,42,29.93,10.0,NNE,6.9,-,N/A,,Clear,30,2013-08-06 22:35:00
4:55 PM,87.6,61.2,41,29.93,10.0,NNE,9.2,-,N/A,,Clear,20,2013-08-06 22:55:00
5:15 PM,87.1,60.8,41,29.93,10.0,NE,5.8,-,N/A,,Clear,40,2013-08-06 23:15:00
5:35 PM,86.9,60.3,41,29.93,10.0,NE,5.8,-,N/A,,Clear,40,2013-08-06 23:35:00
5:55 PM,87.1,61.7,42,29.93,10.0,NE,5.8,-,N/A,,Clear,50,2013-08-06 23:55:00
6:15 PM,84.9,62.6,47,29.93,10.0,NNE,6.9,-,N/A,,Clear,30,2013-08-07 00:15:00
6:35 PM,83.3,63.1,50,29.93,10.0,NNE,6.9,-,N/A,,Clear,20,2013-08-07 00:35:00
6:55 PM,81.7,64.4,56,29.93,10.0,NNE,8.1,-,N/A,,Clear,20,2013-08-07 00:55:00
7:15 PM,80.6,63.5,56,29.93,10.0,NNE,9.2,-,N/A,,Clear,30,2013-08-07 01:15:00
7:35 PM,79.7,62.6,56,29.94,10.0,NNE,10.4,-,N/A,,Clear,30,2013-08-07 01:35:00
7:55 PM,78.8,62.8,58,29.96,10.0,NNE,11.5,-,N/A,,Clear,30,2013-08-07 01:55:00
8:15 PM,77.9,62.8,60,29.97,10.0,NE,10.4,-,N/A,,Clear,40,2013-08-07 02:15:00
8:35 PM,77.9,62.1,58,29.97,10.0,ENE,10.4,-,N/A,,Clear,60,2013-08-07 02:35:00
8:55 PM,77.0,62.4,61,30.00,10.0,NE,8.1,-,N/A,,Clear,50,2013-08-07 02:55:00
9:15 PM,77.0,62.1,60,30.00,10.0,ENE,8.1,-,N/A,,Clear,70,2013-08-07 03:15:00
9:35 PM,76.1,62.1,62,30.02,10.0,NE,4.6,-,N/A,,Clear,50,2013-08-07 03:35:00
9:55 PM,75.4,62.4,64,30.04,10.0,NE,6.9,-,N/A,Thunderstorm,Scattered Clouds,40,2013-08-07 03:55:00
10:15 PM,74.7,62.6,66,30.03,10.0,NNE,12.7,-,N/A,Thunderstorm,Scattered Clouds,20,2013-08-07 04:15:00
10:35 PM,75.7,62.1,62,30.07,10.0,NNW,11.5,-,N/A,,Mostly Cloudy,340,2013-08-07 04:35:00
10:55 PM,63.0,58.3,85,30.11,2.5,WSW,13.8,25.3,N/A,Rain-Thunderstorm,Heavy Thunderstorms and Rain,250,2013-08-07 04:55:00
11:15 PM,62.8,58.5,86,30.08,7.0,Calm,Calm,-,0.04,Rain-Thunderstorm,Thunderstorms and Rain,0,2013-08-07 05:15:00
11:35 PM,64.4,58.5,81,30.06,10.0,South,16.1,20.7,0.07,Rain-Thunderstorm,Thunderstorms and Rain,190,2013-08-07 05:35:00
11:55 PM,64.8,57.6,77,30.00,7.0,SSE,23.0,32.2,0.11,Rain,Light Rain,160,2013-08-07 05:55:00